Location: Birkenwerder
(52.6919°N, 13.2774°E)
Time: 23:21:39
(UTC+00:00)

Cosmos 1570 Rocket - Pass Details

Date: 06 October 2020
Orbit: 763 x 788 km, 74.1° (Epoch: 24 October)

Event Time Altitude Azimuth Distance (km) Brightness Sun altitude
Exits shadow 04:29:45 - 300° (WNW) 2,773 6.4 -8.0°
Reaches altitude 10° 04:32:49 10° 328° (NNW) 2,363 6.2 -7.6°
Maximum altitude 04:33:31 10° 336° (NNW) 2,347 6.3 -7.5°
Drops below altitude 10° 04:34:14 10° 344° (NNW) 2,364 6.4 -7.3°
Sets 04:39:26 0° 26° (NNE) 3,294 7.7 -6.6°
